Weather in Il'inskaya

Russia / Chechen Republic     43°21′45″N   45°56′51″E
temp.,
°C
wind,
m/s
gust,
m/s
humid.,
%
clouds,
%
prec.,
mm/h
press.,
hPa
HPBL,
m
22 january, fri
fri2200:00−2s22480 0.0 103528
03:00−2s11410 0.0 103422
06:00−2s22380 0.0 103322
09:00+2s11320 0.0 103257
12:00+7ne22300 0.0 1031415
15:00+8ene34400 0.0 1029505
18:00+3e23560 0.0 103038
21:00+1sse12580 0.0 103022
23 january, sat
sat2300:000ssw11590 0.0 103022
03:00−1sw11590 0.0 102821
06:00−2sw11620 0.0 102921
09:00+1wsw00510 0.0 102869
12:00+4nne11410 0.0 1026394
15:00+6ne12330 0.0 1025540
18:00+2sse01621 0.0 102627
21:000ssw11601 0.0 102621
24 january, sun
sun2400:00−1sw12590 0.0 102521
03:00−1sw22600 0.0 102421
06:00−1ssw11610 0.0 102321
09:00+1ene11510 0.0 102373
12:00+5ne23460 0.0 1021413
15:00+6ne23490 0.0 1020485
18:00+3e11691 0.0 102122
21:00+1s017528 0.0 102122
25 january, mon
mon2500:000w007910 0.0 102022
03:000s008028 0.0 101922
06:000ssw0081100 0.0 101922
09:00+2ssw006991 0.0 102039
12:00+6nne225216 0.0 1018303
15:00+7nne224954 0.0 1018327
18:00+3ene116167 0.0 101822
21:00+2s006533 0.0 101822
26 january, tue
tue2600:00+1sw116967 0.0 101722
03:00+1s017084 0.0 101822
06:00+1s117269 0.0 101822
09:00+4ene115649 0.0 101869
12:00+7nne22448 0.0 1017309
15:00+8ne234552 0.0 1016355
18:00+5ene1174100 0.0 101724
21:00+3nnw0184100 0.0 101722